Location: Corralito
(10.2667°N, 66.9500°W)
Time: 16:11:17
(UTC+00:00)

YAOGAN 1 - Pass Details

Date: 05 December 2023
Orbit: 613 x 615 km, 97.8° (Epoch: 23 February)

Event Time Altitude Azimuth Distance (km) Brightness Sun altitude
Rises 00:02:06 0° 185° (S) 2,868 6.3 -27.8°
Reaches altitude 10° 00:04:25 10° 194° (SSW) 1,964 5.5 -28.4°
Maximum altitude 00:08:19 35° 260° (W) 995 4.0 -29.3°
Enters shadow 00:10:33 21° 311° (NW) 1,395 4.6 -29.8°
